Back to catalog

STARLINK-34684

AliveCommunicationsSSO
NORAD 64862·PAYLOAD·🇺🇸 United States

Launched Jul 19, 2025 from Vandenberg Space Force Base

Loading…

Next Passes (next 24 hours)

TLE

FreshSource: CelesTrak SupGP

Epoch: Sep 14, 2026, 22:58 UTC

1 64862C 25152W   26257.95743056  .00090028  00000+0  27959-2 0  2571
2 64862  97.2840 108.5998 0001665 108.5610 277.1640 15.33378907    11

Track STARLINK-34684 in real time with AllMySat

Download on the App Store